PIONEER-02

导读

PIONEER-02是一颗由美国发射的人造卫星,于2025年1月14日08:00发射入轨,作为美国先锋系列卫星的第二颗任务星,继承了该系列卫星探索空间环境、验证前沿航天技术的核心目标。 该卫星入轨后持续开展近地空间辐射探测、轨道环境监测等科学试验,为后续同类型小型卫星的设计优化与任务规划积累实测数据,也推动了美国商业航天领域微小卫星技术迭代,服务全球卫星组网与空间科学研究需求。

基本信息
目录编号:
62662
目录名称:
PIONEER-02
国际标识:
2025-009BF
轨道中心:
EARTH
卫星名称:
PIONEER-02
卫星全名:
PIONEER-02
卫星状态:
已陨落 最后检测时间 2025-02-27
发射日期:
2025-01-14 UTC
国别 :
美国 (US)
星等 :
--
轨道信息
数据来源 国际轨道数据
星历时间: 2025-02-27T22:00:01+0800
轨道信息已过期554天
半长轴: 6979.28km
偏心率: 0.0375229
轨道倾角: 97.158°
近地点辐角 16.413°
升交点赤经 140.428°
平近点角 256.430°
近地点: 339.262km
远地点: 863.028km
周期: 96.711分钟
每日圈数: 14.889732
详细信息
使用方式:
暂无